Location: Hamburg
(53.5554°N, 9.9941°E)
Time: 06:31:41
(UTC+01:00)

ISS - Pass Details

Date: 08 January 2018
Orbit: 402 x 407 km, 51.6° (Epoch: 18 January)

Event Time Altitude Azimuth Distance (km) Brightness Sun altitude
Exits shadow 05:06:13 15° 96° (E) 1,206 -0.6 -29.6°
Drops below altitude 10° 05:06:52 10° 93° (E) 1,470 -0.1 -29.5°
Sets 05:08:58 0° 90° (E) 2,332 1.3 -29.2°
